CAPE
0 0 0 0 0 1 1 12 6 95 328 381 355 493 676 621 123 7 1 0 1 79 744 1275 2162 2433 2266 2159 2129 2140 2244 2375 2464 2313 2155 2082 2017 1706 1448 1310 1380 1375 1200 1034 956 1021 1130 1137 1059
0 0 0 0 0 0 0 28 112 274 522 139 1 497 266 523 159 23 172 2 0 18 59 953 1985 2324 2437 2373 2327 2297 2373 2429 2373 2234 2126 1978 1665 1320 1094 954 1040 1007 910 940 1107 1255 1085 1176 1081
0 0 0 0 0 0 52 0 50 31 146 140 123 700 414 160 0 0 201 17 0 0 44 1067 1851 2103 2315 2252 2325 2275 2269 2235 2154 2028 1767 1446 1184 939 724 737 691 723 977 924 1052 1392 1579 1405 1195
0 0 0 0 0 4 79 17 0 100 14 62 149 252 144 41 27 39 520 153 0 0 249 1523 1786 1851 2009 2001 2061 2039 2020 1949 1776 1539 1279 1068 906 731 596 594 593 1016 1250 1229 1439 1663 1370 1238 1103
0 0 0 0 0 26 18 88 35 59 24 32 331 539 104 26 0 17 526 529 309 154 425 1141 1721 1743 1736 1666 1733 1744 1670 1495 1391 1290 1155 973 820 649 614 517 734 1096 1310 961 888 734 418 445 656
0 0 0 0 0 26 48 173 17 22 13 119 572 745 363 9 9 29 85 658 1126 277 357 681 1547 1634 1618 1594 1558 1466 1385 1310 1173 1013 862 764 774 793 687 632 867 1092 527 17 79 109 95 59 135
0 0 0 0 0 46 95 160 75 15 3 283 552 729 312 63 0 0 0 1280 858 557 428 610 979 1137 1448 1539 1528 1566 1457 1262 1134 1044 1023 1100 1137 1036 953 1036 1307 1128 120 0 10 24 67 144 287
0 0 0 0 0 17 28 59 62 40 45 155 201 321 473 183 57 0 87 462 472 576 534 325 524 779 1059 1303 1876 1747 1489 1310 1174 1136 1189 1255 1363 1415 1509 1494 1588 1061 152 190 241 277 327 455 604
0 0 0 0 4 51 3 1 87 56 75 4 76 130 210 93 0 0 0 0 587 341 352 298 310 284 322 730 1247 1491 1287 1289 1247 1064 802 646 582 648 1185 1476 1165 810 439 470 466 507 605 820 926
0 0 0 0 22 1 0 0 113 24 87 0 109 107 65 4 0 0 0 0 178 147 85 140 51 150 26 662 623 338 402 602 315 0 0 66 45 220 742 468 1273 629 542 710 584 817 1289 964 26
0 0 0 0 0 13 15 24 29 5 0 105 128 309 17 7 0 0 0 0 0 36 139 48 0 17 7 140 30 26 142 44 0 0 0 0 0 0 0 0 23 0 54 6 0 0 0 0 0
0 0 0 0 0 0 0 115 113 8 8 83 0 133 138 79 1 0 0 0 0 0 0 0 0 1 18 8 3 190 53 0 0 0 0 87 100 9 0 0 0 0 0 0 0 0 0 0 0
0 0 0 0 0 0 0 12 42 17 0 0 33 16 227 22 46 0 0 0 0 0 0 0 0 83 167 9 0 0 0 0 7 27 1 0 61 0 0 0 0 0 0 0 0 0 0 0 0
0 0 0 0 0 0 0 0 25 1 3 3 7 0 30 23 45 0 0 0 0 0 0 0 27 169 77 172 0 0 0 0 145 39 8 0 0 0 0 0 0 0 0 0 0 0 0 0 0
0 0 0 0 0 0 0 0 0 40 0 18 77 13 44 93 10 31 27 0 0 0 47 202 429 358 362 182 109 26 140 18 24 0 0 0 0 0 0 0 0 0 0 0 0 0 0 0 0
0 0 0 0 0 0 0 0 0 3 1 31 69 89 60 36 134 51 48 207 41 11 145 516 600 671 445 465 508 196 83 114 7 0 0 0 0 0 0 0 0 0 0 0 0 0 0 0 0
0 0 0 0 0 0 0 0 0 0 20 56 70 73 93 105 309 418 370 367 235 102 95 428 611 1018 524 772 524 517 126 9 0 0 0 0 0 0 0 0 0 0 0 0 0 0 0 0 0
0 0 0 0 0 0 0 0 0 0 0 25 45 175 669 470 117 62 350 339 155 25 913 192 545 628 970 1086 519 198 42 0 0 0 0 0 0 0 0 0 0 0 0 0 0 0 0 0 0
0 0 0 0 0 0 0 0 0 0 0 9 202 156 946 644 117 46 143 205 436 0 748 1546 991 1327 1389 1004 362 261 112 0 0 0 0 0 0 0 0 0 0 0 0 0 0 0 0 0 1
0 0 0 0 0 0 0 0 0 0 0 2 691 203 235 373 250 13 43 0 0 1 563 625 610 511 292 286 137 238 119 121 7 0 0 0 0 0 0 0 0 0 0 0 0 0 1 0 1
0 0 0 0 0 0 0 0 0 0 0 392 670 346 86 13 161 111 35 0 0 6 457 291 239 237 253 195 72 49 47 24 0 0 0 0 0 0 0 0 0 0 0 0 0 0 1 2 0
0 0 0 0 0 0 0 0 0 0 0 84 153 331 0 3 2 246 635 152 0 158 180 0 0 0 0 24 166 75 98 0 0 0 0 0 0 0 0 0 0 0 0 0 0 0 11 5 0
0 0 0 0 0 0 0 0 0 0 0 207 301 439 231 358 503 364 123 136 0 0 0 0 0 0 0 0 0 0 0 0 0 0 0 0 0 0 0 0 0 0 0 0 0 0 1 18 19
0 0 0 0 0 0 0 0 0 0 26 33 27 265 39 3 0 0 0 0 0 0 0 0 0 0 0 0 0 0 0 0 0 0 0 0 0 0 0 0 0 0 0 0 0 8 5 18 18
0 0 0 0 0 0 0 0 0 0 92 13 0 2 0 0 0 0 0 0 0 0 0 0 0 0 0 0 0 0 0 0 0 0 0 0 0 0 0 0 0 0 0 0 1 0 10 23 9
0 0 0 0 0 0 0 0 0 207 52 2 0 0 0 0 0 0 0 0 0 0 0 0 0 0 0 0 0 0 0 0 0 0 0 0 0 0 0 0 0 0 0 0 0 7 10 11 8
0 0 0 0 0 0 0 43 96 133 47 13 0 0 0 0 0 0 0 0 0 0 0 0 0 0 0 0 0 0 0 0 0 0 0 0 0 0 0 0 0 0 0 0 0 3 11 1 0
0 0 0 0 0 0 0 12 59 173 84 16 15 13 0 0 0 0 0 0 0 0 0 0 0 0 0 0 0 0 0 0 0 0 0 0 0 0 0 0 0 0 1 6 10 0 0 0 0
0 0 0 0 0 0 0 0 22 22 46 15 3 1 0 0 0 0 0 0 0 0 0 0 0 0 0 0 0 0 0 0 0 0 0 0 0 0 0 0 0 0 0 0 0 0 0 0 0
0 0 0 0 0 0 0 54 34 67 20 18 0 1 0 0 0 0 0 0 0 0 0 0 0 0 0 0 0 0 0 0 0 0 0 0 0 0 0 0 0 0 0 0 0 0 0 0 0
CIN
-0 -0 -0 -0 -0 -19 -58 -243 -18 -302 -88 -125 -152 -110 -104 -112 -211 -131 -61 -0 -130 -519 -269 -178 -88 -64 -64 -58 -40 -21 -7 -0 -0 -0 -3 -1 -0 -5 -12 -16 -10 -8 -17 -28 -38 -33 -27 -28 -36
-0 -0 -0 -0 -0 -7 -0 -352 -282 -286 -61 -173 -8 -148 -171 -153 -259 -538 -387 -321 -0 -669 -510 -235 -99 -61 -41 -32 -16 -9 -1 -0 -0 -0 -0 -0 -1 -13 -27 -39 -33 -32 -41 -38 -26 -19 -31 -28 -38
-0 -0 -0 -0 -0 -7 -193 -0 -92 -161 -25 -170 -187 -98 -131 -235 -0 -0 -371 -673 -0 -0 -572 -217 -103 -69 -43 -27 -12 -5 -0 -0 -0 -0 -2 -17 -33 -56 -76 -67 -68 -57 -31 -32 -25 -10 -6 -24 -46
-0 -0 -0 -0 -0 -187 -252 -380 -0 -228 -160 -113 -147 -123 -192 -316 -374 -183 -251 -396 -0 -0 -424 -149 -98 -83 -60 -45 -32 -20 -9 -4 -11 -18 -39 -52 -66 -82 -93 -92 -82 -39 -20 -28 -20 -16 -40 -56 -67
-0 -0 -0 -0 -0 -165 -248 -374 -265 -185 -151 -111 -111 -115 -220 -287 -0 -160 -200 -263 -277 -412 -374 -193 -114 -102 -103 -89 -68 -46 -36 -41 -41 -41 -57 -72 -84 -97 -98 -100 -78 -49 -43 -73 -80 -94 -135 -137 -119
-0 -0 -0 -0 -0 -172 -357 -295 -406 -213 -19 -92 -100 -122 -162 -300 -313 -263 -249 -205 -200 -397 -371 -274 -143 -122 -115 -94 -84 -82 -67 -67 -74 -89 -101 -106 -98 -93 -104 -108 -88 -73 -120 -110 -208 -193 -212 -239 -198
-0 -0 -0 -0 -0 -105 -347 -370 -201 -241 -158 -42 -112 -117 -198 -234 -0 -0 -0 -117 -200 -259 -352 -313 -230 -175 -117 -102 -96 -65 -64 -82 -98 -106 -101 -87 -85 -94 -99 -91 -75 -87 -200 -0 -219 -282 -229 -203 -171
-0 -0 -0 -0 -0 -159 -325 -195 -375 -372 -35 -48 -93 -139 -159 -232 -222 -0 -117 -172 -207 -265 -286 -367 -295 -232 -174 -135 -56 -62 -84 -96 -110 -106 -97 -92 -85 -72 -63 -79 -84 -101 -195 -184 -185 -164 -158 -141 -126
-0 -0 -0 -0 -50 -123 -260 -189 -294 -375 -331 -40 -59 -145 -197 -187 -0 -0 -0 -0 -184 -217 -288 -344 -367 -376 -347 -232 -142 -108 -117 -117 -117 -139 -155 -175 -192 -177 -121 -109 -119 -121 -153 -139 -137 -130 -112 -98 -93
-0 -0 -0 -0 -92 -28 -0 -0 -378 -447 -256 -29 -164 -156 -211 -163 -0 -0 -0 -0 -272 -291 -344 -353 -440 -404 -463 -183 -255 -318 -264 -225 -275 -0 -0 -332 -335 -259 -151 -196 -87 -122 -116 -104 -101 -87 -59 -99 -108
-0 -0 -0 -0 -0 -108 -122 -277 -479 -276 -0 -142 -131 -175 -159 -323 -0 -0 -0 -0 -0 -346 -303 -307 -0 -404 -446 -307 -544 -499 -349 -435 -0 -0 -0 -0 -0 -0 -0 -0 -28 -0 -268 -182 -16 -0 -0 -0 -0
-0 -0 -0 -0 -0 -0 -0 -158 -191 -303 -243 -281 -0 -180 -267 -219 -17 -0 -0 -0 -0 -0 -0 -0 -0 -46 -308 -437 -209 -316 -355 -0 -0 -0 -0 -221 -294 -321 -0 -0 -0 -0 -0 -0 -0 -0 -0 -0 -0
-0 -0 -0 -0 -0 -0 -0 -146 -317 -385 -0 -0 -366 -123 -258 -413 -101 -0 -0 -0 -0 -0 -0 -0 -0 -307 -232 -374 -0 -0 -0 -0 -286 -374 -26 -0 -361 -0 -0 -0 -0 -0 -0 -0 -0 -0 -0 -0 -0
-0 -0 -0 -0 -0 -0 -0 -0 -327 -85 -275 -234 -267 -0 -358 -400 -98 -0 -0 -0 -0 -0 -0 -0 -45 -275 -275 -244 -0 -0 -0 -0 -396 -484 -482 -0 -0 -0 -0 -0 -0 -0 -0 -0 -0 -0 -0 -0 -0
-0 -0 -0 -0 -0 -0 -0 -0 -0 -334 -0 -394 -398 -421 -314 -227 -111 -94 -147 -0 -0 -0 -239 -307 -264 -292 -199 -250 -271 -327 -242 -298 -481 -0 -0 -0 -0 -0 -0 -0 -0 -0 -0 -0 -0 -0 -0 -0 -0
-0 -0 -0 -0 -0 -0 -0 -0 -0 -265 -55 -254 -178 -156 -199 -309 -165 -260 -694 -447 -388 -207 -346 -269 -184 -271 -246 -227 -228 -255 -284 -341 -342 -0 -0 -0 -0 -0 -0 -0 -0 -0 -0 -0 -0 -0 -0 -0 -0
-0 -0 -0 -0 -0 -0 -0 -0 -0 -0 -264 -264 -265 -175 -169 -175 -401 -551 -598 -637 -558 -522 -302 -232 -255 -224 -284 -248 -228 -267 -383 -240 -0 -0 -0 -0 -0 -0 -0 -0 -0 -0 -0 -0 -0 -0 -0 -0 -0
-0 -0 -0 -0 -0 -0 -0 -0 -0 -0 -0 -190 -157 -324 -365 -620 -645 -659 -584 -588 -439 -278 -269 -232 -235 -264 -222 -225 -304 -430 -528 -0 -0 -0 -0 -0 -0 -0 -0 -0 -0 -0 -0 -0 -0 -0 -0 -0 -0
-0 -0 -0 -0 -0 -0 -0 -0 -0 -0 -0 -26 -283 -402 -496 -606 -776 -832 -770 -614 -505 -1 -319 -128 -321 -180 -146 -117 -340 -389 -469 -0 -0 -0 -0 -0 -0 -0 -0 -0 -0 -0 -0 -0 -0 -0 -0 -0 -19
-0 -0 -0 -0 -0 -0 -0 -0 -0 -0 -0 -29 -290 -506 -575 -636 -677 -598 -774 -0 -0 -107 -378 -139 -253 -270 -374 -354 -419 -340 -392 -349 -211 -0 -0 -0 -0 -0 -0 -0 -0 -0 -0 -0 -0 -0 -27 -0 -31
-0 -0 -0 -0 -0 -0 -0 -0 -0 -0 -0 -202 -284 -506 -680 -939 -797 -824 -893 -0 -0 -358 -281 -254 -299 -335 -345 -381 -416 -416 -384 -360 -0 -0 -0 -0 -0 -0 -0 -0 -0 -0 -0 -0 -0 -0 -12 -13 -21
-0 -0 -0 -0 -0 -0 -0 -0 -0 -0 -0 -223 -309 -491 -0 -935 -286 -695 -425 -579 -0 -395 -355 -0 -0 -0 -0 -468 -364 -447 -348 -0 -0 -0 -0 -0 -0 -0 -0 -0 -0 -0 -0 -0 -0 -0 -12 -15 -0
-0 -0 -0 -0 -0 -0 -0 -0 -0 -0 -0 -282 -338 -409 -510 -551 -535 -496 -490 -455 -0 -0 -0 -0 -0 -0 -0 -0 -0 -0 -0 -0 -0 -0 -0 -0 -0 -0 -0 -0 -0 -0 -0 -0 -0 -0 -33 -17 -10
-0 -0 -0 -0 -0 -0 -0 -0 -0 -0 -112 -333 -449 -406 -564 -448 -0 -0 -0 -0 -0 -0 -0 -0 -0 -0 -0 -0 -0 -0 -0 -0 -0 -0 -0 -0 -0 -0 -0 -0 -0 -0 -0 -0 -0 -44 -38 -23 -27
-0 -0 -0 -0 -0 -0 -0 -0 -0 -0 -210 -218 -0 -226 -0 -0 -0 -0 -0 -0 -0 -0 -0 -0 -0 -0 -0 -0 -0 -0 -0 -0 -0 -0 -0 -0 -0 -0 -0 -0 -0 -0 -0 -0 -33 -0 -35 -31 -44
-0 -0 -0 -0 -0 -0 -0 -0 -0 -157 -260 -100 -0 -0 -0 -0 -0 -0 -0 -0 -0 -0 -0 -0 -0 -0 -0 -0 -0 -0 -0 -0 -0 -0 -0 -0 -0 -0 -0 -0 -0 -0 -0 -0 -2 -53 -43 -44 -58
-0 -0 -0 -0 -0 -0 -0 -31 -102 -182 -258 -338 -0 -69 -0 -0 -0 -0 -0 -0 -0 -0 -0 -0 -0 -0 -0 -0 -0 -0 -0 -0 -0 -0 -0 -0 -0 -0 -0 -0 -0 -0 -0 -0 -22 -53 -44 -32 -0
-0 -0 -0 -0 -0 -0 -0 -13 -70 -142 -205 -300 -331 -389 -0 -0 -0 -0 -0 -0 -0 -0 -0 -0 -0 -0 -0 -0 -0 -0 -0 -0 -0 -0 -0 -0 -0 -0 -0 -0 -0 -0 -21 -40 -44 -35 -0 -0 -0
-0 -0 -0 -0 -0 -0 -0 -0 -82 -116 -180 -254 -294 -308 -0 -0 -0 -0 -0 -0 -0 -0 -0 -0 -0 -0 -0 -0 -0 -0 -0 -0 -0 -0 -0 -0 -0 -0 -0 -0 -0 -0 -0 -0 -0 -0 -0 -0 -0
-0 -0 -0 -0 -0 -2 -0 -40 -105 -160 -137 -179 -1 -254 -0 -0 -0 -0 -0 -0 -0 -0 -0 -0 -0 -0 -0 -0 -0 -0 -0 -0 -0 -0 -0 -0 -0 -0 -0 -0 -0 -0 -0 -0 -0 -0 -0 -0 -0
Wind_Speed
4 5 2 2 5 5 4 7 13 16 8 6 7 9 11 5 4 5 7 19 18 13 11 12 14 15 14 14 13 12 12 11 10 10 9 8 7 7 6 6 6 6 6 6 6 6 7 7 8
2 4 2 4 4 3 4 10 14 24 6 11 7 9 10 9 8 13 13 18 18 14 9 9 14 14 14 13 12 12 11 10 10 9 8 7 5 5 5 4 5 5 5 6 6 7 8 8 9
3 4 2 4 3 5 6 8 8 5 13 9 5 9 6 6 12 7 23 19 18 12 10 11 14 14 14 13 12 11 11 10 9 8 7 6 4 4 4 4 4 6 6 7 7 7 7 7 8
2 3 5 3 7 4 8 13 3 5 9 18 17 8 5 11 8 11 21 22 19 14 11 13 14 14 14 13 12 11 10 9 8 6 5 4 3 2 2 3 4 5 6 6 5 5 5 5 6
2 2 2 3 6 2 6 18 11 15 9 17 20 13 6 5 14 14 20 20 19 14 12 12 15 14 14 13 12 10 9 8 7 5 4 3 2 1 1 2 3 3 3 3 3 3 4 5 6
4 3 4 6 2 5 4 21 18 21 21 16 18 13 5 8 7 7 10 18 18 17 12 12 14 13 13 12 11 10 9 8 7 5 4 3 2 2 2 1 1 2 2 2 2 4 5 7 9
6 1 8 10 7 3 9 17 10 7 29 12 14 9 9 8 8 8 10 18 17 16 13 9 8 11 12 12 11 10 10 8 7 6 6 5 5 6 6 5 7 7 7 7 8 7 7 10 11
3 3 11 9 8 4 2 9 20 22 9 7 18 8 13 14 12 8 15 17 18 15 14 10 8 7 7 7 12 11 10 9 8 8 8 8 9 7 7 10 11 10 10 11 8 8 10 12 12
7 2 8 13 4 7 6 6 5 10 15 28 4 17 18 16 12 8 7 12 14 13 14 13 11 10 9 8 9 11 12 11 11 9 9 8 4 6 9 10 12 11 11 11 8 9 13 12 10
4 2 9 14 2 4 3 12 15 15 18 27 11 15 16 16 10 11 8 7 14 16 15 16 15 13 12 10 9 8 7 5 6 6 6 4 5 5 9 9 9 10 11 10 10 11 11 6 4
9 9 12 17 5 9 7 20 6 19 14 7 11 5 5 10 10 13 12 10 10 18 14 16 15 14 14 10 8 5 4 4 4 6 6 5 3 2 4 2 3 2 5 2 3 4 4 6 4
8 13 13 14 4 5 7 15 7 10 5 14 9 13 6 10 10 11 11 10 9 10 14 14 15 8 10 8 7 8 6 5 4 5 6 4 3 3 4 3 2 3 3 5 5 4 6 6 6
8 15 13 12 10 5 2 11 10 8 14 12 7 19 9 7 10 9 11 9 9 8 9 15 10 10 10 6 4 5 6 5 5 5 5 4 4 4 4 4 5 5 4 5 5 5 5 6 6
11 12 11 10 11 5 2 20 15 15 17 12 15 15 12 11 13 7 10 11 9 9 9 8 9 10 9 6 6 5 5 6 5 4 5 7 5 5 5 5 5 5 4 4 4 4 4 4 5
9 9 9 6 7 5 3 6 9 22 17 20 20 19 21 20 12 9 10 12 11 9 12 10 8 9 9 7 6 5 4 5 6 5 6 7 6 6 6 4 4 4 5 6 5 5 5 6 6
9 7 5 9 9 10 4 9 10 23 17 15 21 22 22 25 13 15 25 24 25 4 12 10 9 7 8 7 4 4 4 6 5 5 6 9 11 8 6 5 4 5 5 4 4 4 6 5 6
6 7 9 13 13 8 9 9 9 17 19 15 13 16 20 4 13 13 18 17 17 23 1 8 8 9 8 7 5 6 7 8 7 7 7 9 8 6 5 4 4 5 4 4 4 5 4 4 4
10 6 9 11 12 13 7 7 9 10 10 23 17 15 23 20 16 13 15 23 17 16 19 3 4 6 7 5 6 6 9 7 5 6 5 5 5 6 5 3 5 5 4 4 4 4 3 2 4
12 11 14 12 5 8 9 7 10 9 4 6 18 19 19 21 14 15 19 19 20 7 7 17 12 6 7 3 4 4 4 3 5 5 6 5 5 4 4 2 3 3 4 3 2 2 3 3 2
16 9 10 9 11 4 9 7 3 5 6 7 18 15 17 14 12 10 18 22 19 5 8 6 8 8 4 3 1 3 4 4 4 3 3 4 4 3 2 1 3 3 2 3 3 2 3 2 2
10 2 8 8 13 6 4 2 3 10 4 17 16 16 12 18 16 12 9 8 6 8 1 2 5 6 4 5 4 4 5 2 3 3 2 2 5 1 2 3 2 3 3 2 3 3 3 2 3
5 3 8 12 7 4 3 6 6 9 10 14 16 19 17 19 15 13 11 8 9 6 3 6 7 8 6 5 6 7 4 3 2 2 2 3 3 4 2 3 3 3 2 3 3 3 3 1 4
7 5 5 8 9 4 12 3 9 5 9 11 16 22 18 18 18 17 13 14 13 9 7 4 7 8 8 10 8 7 6 4 2 3 4 4 3 3 2 4 3 2 1 3 4 4 4 3 3
4 5 7 4 3 4 10 3 10 7 10 9 15 20 19 18 17 15 11 12 14 8 6 6 7 8 9 9 8 8 7 5 4 4 4 4 3 5 6 4 4 0 1 3 4 4 4 4 4
5 1 3 5 4 9 7 6 15 8 15 18 19 18 18 17 16 15 13 11 12 9 8 7 8 8 7 8 7 6 5 6 6 5 4 6 4 3 6 5 5 4 4 5 5 5 5 4 3
8 10 8 7 6 6 8 6 11 11 14 14 15 16 17 16 14 14 14 13 13 11 10 9 8 8 7 7 6 6 7 4 4 5 4 3 3 3 4 6 6 7 6 5 5 2 4 5 4
9 6 10 4 6 3 5 4 6 14 14 14 13 14 13 14 11 12 10 12 12 11 10 9 9 8 7 6 6 5 5 6 5 5 4 3 4 4 6 7 6 7 6 6 6 3 5 5 5
12 7 3 1 5 5 7 4 5 10 11 11 11 10 9 11 13 12 11 10 8 9 8 9 8 8 7 6 6 5 5 6 5 5 5 4 4 5 6 7 7 7 7 6 7 5 5 6 5
4 5 3 5 7 7 3 6 9 14 15 15 13 13 16 13 14 12 11 9 9 8 9 8 8 8 7 7 5 6 4 4 4 3 2 2 3 5 6 6 6 6 7 8 7 7 7 7 7
11 12 10 7 6 3 7 6 1 13 16 19 19 18 15 15 13 12 11 9 7 8 7 7 7 8 7 6 6 4 2 1 0 1 2 4 4 5 6 6 6 7 7 6 6 6 6 7 8
Wind_Direction
179 224 190 345 53 82 83 107 345 290 278 82 58 72 65 72 139 182 152 116 122 127 132 126 127 128 126 126 128 127 125 122 117 113 113 111 100 90 77 69 64 56 49 41 33 25 20 13 5
282 278 171 278 100 85 210 163 192 226 221 95 76 93 71 67 80 117 113 126 126 132 128 130 131 131 129 127 130 129 127 125 124 126 122 113 106 95 85 68 52 36 33 26 23 19 12 5 358
231 202 76 162 194 191 157 224 202 273 303 140 102 106 68 98 121 118 127 134 126 128 130 138 135 134 131 131 128 127 130 130 129 131 125 119 110 86 65 47 29 17 21 24 19 15 6 359 350
318 43 317 92 273 261 185 212 244 272 312 112 113 75 89 152 133 131 141 134 131 132 130 140 139 135 134 136 136 134 132 135 131 127 120 118 109 93 64 31 13 24 16 11 1 357 349 342 328
231 290 300 310 247 172 44 39 313 319 280 107 111 108 75 89 123 136 144 140 133 132 137 141 140 140 139 142 136 135 134 129 131 140 135 136 134 115 52 3 17 10 360 354 343 332 321 312 298
315 109 346 274 90 204 64 86 289 331 307 124 114 117 106 125 108 149 157 133 138 134 138 142 141 143 141 142 136 134 137 145 151 147 151 162 179 203 226 246 292 290 281 285 273 272 285 287 281
202 347 249 294 305 153 157 156 178 242 276 131 134 122 145 129 148 171 128 126 131 129 133 134 140 146 144 142 137 141 148 151 152 163 178 191 205 211 213 214 221 220 217 228 233 245 265 275 275
221 126 288 281 296 281 199 161 132 181 313 19 133 148 157 153 173 185 122 135 134 139 138 142 140 141 145 143 147 151 154 159 168 188 196 203 218 219 217 220 224 218 218 233 241 257 267 268 279
286 326 280 275 285 224 179 98 28 348 3 341 164 131 137 155 169 121 122 134 138 142 148 150 158 167 163 157 163 161 166 175 191 200 202 209 208 213 225 221 219 220 230 247 262 272 270 279 295
175 242 255 266 192 224 217 117 139 94 2 288 25 103 139 159 147 149 165 166 150 155 167 160 167 171 168 165 161 169 179 184 193 193 197 199 216 215 215 224 206 218 243 257 273 268 283 320 298
256 239 261 275 218 193 210 153 116 132 182 195 273 164 248 163 162 164 181 169 172 171 170 165 173 171 167 158 169 175 184 185 190 199 181 171 151 119 154 147 177 236 292 273 353 15 17 348 360
272 266 263 265 246 200 344 146 101 142 223 138 264 249 161 281 180 176 175 173 175 158 165 163 180 140 154 157 181 175 175 178 170 172 111 87 58 44 29 41 40 31 17 34 26 3 340 347 330
262 262 267 277 297 223 162 88 125 121 196 180 186 270 187 248 205 180 164 162 155 143 133 148 147 135 145 158 190 160 173 152 156 118 109 100 73 50 22 13 8 15 37 31 1 352 337 332 339
265 280 256 269 287 312 185 134 122 203 196 176 140 230 275 293 239 156 137 140 141 146 131 141 133 128 123 116 129 118 120 133 110 102 98 77 76 56 30 7 5 32 19 8 356 325 335 2 3
291 291 304 298 259 261 285 298 161 179 198 162 133 229 254 257 246 165 140 149 143 151 139 139 130 118 120 122 120 124 140 116 111 110 93 90 83 65 43 14 31 10 5 351 348 10 7 8 8
302 320 313 272 263 256 150 261 284 167 174 185 180 192 212 230 237 68 72 36 15 99 134 137 140 128 127 132 123 94 86 84 102 90 68 55 71 51 36 13 22 358 356 14 22 9 13 9 4
299 232 252 272 251 202 167 236 254 150 178 195 192 220 213 160 90 68 79 68 18 13 357 144 144 150 151 137 128 83 80 74 75 79 70 56 54 50 39 17 352 10 11 17 17 26 12 7 343
253 259 270 254 263 172 194 215 247 262 220 201 206 59 104 101 113 95 77 60 11 344 348 328 120 139 119 123 96 81 83 80 88 88 65 45 60 62 62 26 11 16 30 9 25 23 337 342 318
267 277 277 281 303 140 195 209 247 269 227 169 90 97 105 104 120 119 123 123 168 232 2 325 103 90 87 39 78 71 83 88 75 67 67 53 65 45 55 40 47 37 19 6 358 331 346 326 318
256 280 288 307 338 90 200 224 225 277 292 135 113 108 121 113 127 122 132 151 189 139 70 343 45 87 63 83 69 113 100 84 84 80 77 100 93 68 109 82 89 30 355 348 350 342 308 300 331
265 285 310 292 313 325 138 309 286 294 328 104 106 107 94 114 127 116 129 132 112 119 311 133 80 77 54 86 90 78 70 74 94 125 98 120 139 169 224 127 112 60 39 349 331 322 294 302 307
263 299 289 290 325 275 129 256 253 241 252 104 102 115 123 125 125 122 131 152 148 181 149 61 63 75 61 60 71 94 95 107 155 120 159 193 203 226 189 104 80 112 48 351 317 315 305 261 284
234 290 268 277 313 309 302 78 266 252 219 116 104 122 122 125 125 122 124 122 116 97 87 86 76 73 62 60 61 70 74 69 70 49 21 2 318 252 48 83 37 117 70 303 292 304 315 283 261
266 276 299 315 43 348 255 225 277 268 147 135 120 118 117 114 110 113 117 116 118 116 118 101 88 73 66 66 69 84 88 88 74 44 42 5 360 54 39 3 8 355 295 289 285 285 295 284 298
171 171 327 344 341 247 265 269 254 284 150 141 131 120 121 119 122 128 134 133 127 129 116 92 86 88 88 84 78 79 65 70 89 70 43 21 7 18 1 24 342 318 291 282 277 295 283 277 267
202 161 162 206 220 261 275 249 271 118 100 100 111 121 124 132 141 145 146 146 142 137 129 131 130 114 105 99 90 76 70 77 71 66 44 36 35 356 346 344 328 315 302 303 273 304 296 298 287
248 235 197 194 275 345 240 114 2 118 122 125 127 132 141 143 136 134 124 124 128 134 142 136 120 119 123 130 115 93 79 68 65 53 52 41 20 339 338 318 307 297 295 289 271 272 287 332 309
176 199 193 342 247 240 271 237 195 143 143 135 137 141 126 130 120 123 125 124 117 120 124 119 120 124 116 100 92 84 77 72 57 58 57 36 355 338 328 323 322 319 313 336 3 359 10 2 335
178 230 216 146 159 191 226 266 189 171 161 162 165 150 145 138 134 129 125 116 120 112 106 115 115 115 98 95 82 72 64 48 75 66 30 10 357 344 343 338 339 341 21 41 35 15 3 352 335
172 189 180 145 275 216 159 265 333 158 176 177 173 154 142 137 126 124 118 128 133 125 120 120 116 105 106 100 86 93 48 64 51 104 68 18 19 345 325 329 329 14 65 43 34 357 337 329 321